Lid_Strength_Index
4 3 3 3 3 4 4 4 4 4 4 4 4 5 5 5 5 5 5 4 7 10 9 8 8 10 10 11 13 10 11 10 11 13 13 12 12 10 11 10 10 11 12 14 13 16 17 7 7 11 9 5 5 5
5 4 3 3 4 4 4 4 4 4 5 4 4 5 5 5 5 5 8 5 5 9 9 6 7 6 7 8 9 9 10 10 9 11 11 11 12 11 12 14 8 12 9 13 11 11 7 5 7 5 5 5 5 5
4 5 5 4 4 4 4 4 4 4 5 5 5 5 5 5 4 5 6 6 6 10 10 9 9 6 5 6 5 11 9 8 9 8 10 11 13 10 13 12 10 8 6 9 10 7 7 5 4 4 4 4 4 4
4 4 4 5 4 5 5 4 5 5 5 6 6 5 5 4 4 4 6 5 7 8 13 10 7 8 6 5 5 6 7 7 7 8 10 11 13 9 12 10 10 9 8 8 9 8 6 5 4 4 4 4 4 4
4 4 4 4 5 5 5 5 5 5 6 5 5 5 5 4 4 4 4 5 5 9 12 11 8 7 6 6 7 6 7 8 9 10 11 12 9 11 10 9 10 8 9 9 10 6 6 6 4 4 4 4 4 4
3 3 4 4 4 4 4 4 5 5 5 5 5 5 4 4 4 5 9 5 5 7 11 14 8 8 7 6 7 7 7 8 8 10 10 9 8 10 13 12 8 7 6 5 6 5 5 5 4 3 4 4 4 5
3 3 3 3 3 4 4 4 4 4 5 5 5 5 4 5 4 8 8 6 5 6 11 13 12 8 7 7 7 7 7 8 8 10 11 9 9 9 11 12 8 7 6 5 5 5 6 5 5 4 4 5 5 4
3 3 3 3 3 3 3 4 4 4 4 4 5 5 5 5 5 8 5 5 4 8 9 13 12 10 6 8 10 7 9 9 10 10 9 10 8 9 12 8 7 6 6 6 5 4 5 5 4 5 5 5 6 6
3 3 3 3 3 3 3 4 4 4 4 4 5 5 6 7 9 7 4 4 5 8 12 13 13 13 7 8 7 7 7 11 7 10 10 9 10 12 9 8 7 7 7 6 5 4 5 6 6 6 6 7 8 9
3 3 3 3 3 3 3 4 4 4 4 4 5 8 10 7 4 4 7 9 11 10 9 13 9 11 8 8 9 9 8 10 13 10 7 10 10 7 7 6 6 6 5 5 6 6 6 7 6 7 8 8 9 9
3 3 3 3 3 4 3 3 3 3 4 6 8 8 6 4 6 8 10 12 11 13 11 10 9 11 7 11 10 8 10 10 14 11 11 11 11 8 6 6 5 5 5 5 5 5 5 6 8 9 9 9 9 9
3 3 3 3 3 4 3 3 3 4 6 5 5 5 5 8 9 11 12 11 12 13 9 10 9 8 8 6 9 9 11 11 14 8 11 13 9 7 7 6 5 5 5 5 5 5 6 7 7 8 8 9 9 9
3 3 3 3 3 3 3 3 3 3 4 6 7 9 9 9 13 14 15 13 12 9 7 7 8 7 7 7 9 9 12 12 7 11 13 10 7 7 6 5 5 4 5 5 6 6 6 7 7 7 7 7 8 9
3 2 2 2 2 2 2 2 2 4 6 8 10 13 12 13 12 11 11 9 7 7 6 6 7 8 8 9 9 12 10 9 13 14 12 8 7 6 6 4 4 5 6 6 6 6 7 7 8 7 7 7 8 9
2 2 2 2 2 2 1 1 2 5 6 8 9 12 12 9 8 7 6 6 6 5 5 6 6 6 8 9 9 10 12 13 12 12 9 6 6 5 5 4 4 5 7 7 6 7 8 7 8 7 6 6 7 8
3 3 2 2 2 2 1 1 2 6 6 7 8 10 8 9 8 7 7 7 5 5 4 5 9 10 10 9 10 12 12 13 10 7 5 5 5 5 4 4 4 4 5 6 6 6 7 7 8 7 6 6 7 7
3 3 2 1 1 1 1 3 6 7 7 8 8 6 7 7 7 6 6 6 4 5 8 7 11 10 7 10 11 9 10 8 6 5 4 4 5 5 3 4 4 5 5 6 6 6 6 6 6 6 7 6 5 7
3 1 2 1 1 1 2 5 5 6 8 7 8 6 6 5 6 6 4 4 4 5 6 9 7 10 10 11 10 7 6 5 4 4 4 4 3 3 3 3 4 5 5 5 5 6 6 6 6 6 6 6 5 6
3 4 3 1 2 4 6 6 4 8 7 6 6 5 5 5 5 4 4 3 3 3 5 7 9 10 10 7 7 6 5 5 5 4 4 3 4 4 3 4 4 5 5 5 5 6 6 6 6 6 5 5 6 7
3 3 3 2 2 5 6 6 3 6 8 6 5 6 5 6 5 5 5 5 5 6 8 9 9 7 7 5 4 4 4 3 4 6 6 4 4 4 4 5 5 5 5 5 5 8 7 7 7 7 7 8 7 9
4 3 3 2 4 4 5 6 6 5 5 6 5 6 6 5 6 6 6 5 7 8 9 7 6 4 3 3 3 3 3 3 4 5 6 6 4 4 4 4 4 5 5 6 7 8 9 8 8 8 8 9 9 9
4 4 4 3 5 5 6 4 5 4 6 6 6 5 7 7 7 6 5 7 7 6 6 5 4 4 4 4 4 3 3 4 4 4 6 6 6 5 5 5 5 6 6 6 7 7 8 8 9 9 9 10 10 11
3 4 5 5 8 8 8 4 7 6 8 8 7 8 8 8 6 4 8 6 6 4 4 4 4 3 4 4 4 3 3 4 5 5 5 5 4 4 4 4 4 5 6 6 6 7 8 9 10 10 10 10 10 10
3 6 8 8 8 10 7 8 7 8 8 8 9 10 9 7 6 8 9 7 5 4 4 4 4 4 4 4 5 4 4 3 4 4 4 4 4 4 4 4 5 5 5 6 7 8 9 9 10 10 10 10 11 11
8 8 8 11 8 10 11 11 10 10 11 10 10 10 9 7 9 10 10 7 5 5 4 4 4 4 5 4 4 4 3 3 4 5 3 4 3 4 5 5 6 6 6 7 7 8 9 10 9 10 11 11 12 13
11 8 9 10 10 11 11 12 12 11 10 11 10 8 7 9 11 12 9 6 5 5 5 4 4 5 5 4 5 4 3 2 3 4 3 3 3 4 6 7 8 8 7 7 7 9 10 10 10 11 12 13 13 13
12 11 8 6 8 8 9 9 9 10 11 11 10 9 10 12 12 9 5 4 4 4 4 4 5 5 4 4 3 3 3 4 5 5 5 5 4 4 5 7 8 7 7 7 7 8 9 10 11 11 12 12 12 12
9 8 10 8 8 8 10 10 10 10 9 8 9 11 12 11 11 6 5 4 4 5 5 5 5 6 6 5 5 6 6 6 7 7 6 7 7 6 6 6 6 7 7 7 7 8 9 10 11 11 12 13 13 12
8 7 7 10 9 8 8 9 9 7 6 6 9 10 9 7 5 5 5 5 5 5 6 6 6 6 6 6 6 6 6 6 7 8 8 9 10 10 7 8 7 7 7 8 9 9 10 10 10 11 12 12 12 12
7 5 8 9 10 11 8 5 6 4 4 4 5 5 6 6 5 5 5 5 6 6 5 5 5 6 6 7 8 8 6 6 6 6 8 10 11 9 9 10 10 10 10 11 12 12 12 13 13 13 13 12 12 13
5 6 7 7 8 6 5 4 3 3 4 4 4 6 6 5 6 6 6 7 7 6 6 7 6 6 6 7 7 8 9 7 7 8 8 9 9 9 10 10 10 11 12 12 12 12 12 12 12 12 13 14 14 14
6 7 8 9 8 5 4 5 6 6 6 6 6 5 6 7 9 7 8 8 8 7 7 6 7 7 7 6 6 6 7 8 8 8 9 9 9 10 10 10 10 10 11 11 12 12 12 12 13 13 14 14 15 16
6 6 7 7 8 8 6 6 7 7 7 7 6 6 6 7 9 8 8 8 8 7 6 7 7 6 7 7 7 6 7 7 8 9 9 9 9 9 9 10 10 11 11 12 12 12 12 13 13 14 15 16 16 16